Regional Weather Roundup
Issued by NWS

Home | Current Version | Previous Version | Graphics & Text | Print | Product List | Glossary On
Versions: 1 2 3 4 5 6 7 8 9 10 11 12 13 14 15 16 17 18 19 20 21 22 23 24 25 26 27 28 29 30 31 32 33 34 35 36 37 38 39 40 41 42 43 44 45 46 47 48 49 50
000
ASUS43 KLMK 161602
RWRKY
KENTUCKY REGIONAL WEATHER ROUNDUP
NATIONAL WEATHER SERVICE LOUISVILLE KY
1100 AM EST TUE JAN 16 2018

NOTE "FAIR" INDICATES FEW OR NO CLOUDS BELOW 12,000 FEET
WITH NO SIGNIFICANT WEATHER AND/OR OBSTRUCTIONS TO VISIBILITY.

KYZ001>023-026-027-061>063-070>075-161700-
WESTERN AND SOUTH CENTRAL KENTUCKY

CITY           SKY/WX    TMP DP  RH WIND       PRES   REMARKS
PADUCAH        MIX PCPN   7  -5  57 NW8       30.69R WCI  -6
HENDERSON      FAIR      11   0  61 NW10      30.68R WCI  -3
OWENSBORO      FAIR       7  -2  66 NW10      30.67R WCI  -8
HOPKINSVILLE   PTSUNNY   10   1  67 NW9       30.63R WCI  -3
BOWLING GREEN  CLOUDY    11   3  70 NW8G17    30.63R WCI  -1
GLASGOW        NOT AVBL
$$

KYZ024-025-028>034-038-045-046-053-161700-
NORTH CENTRAL KENTUCKY

CITY           SKY/WX    TMP DP  RH WIND       PRES   REMARKS
LOUISVILLE/SDF PTSUNNY    8  -1  66 NW10      30.61R WCI  -6
LOUISVILLE/LOU PTSUNNY    7  -2  66 NW10      30.61R WCI  -8
FORT KNOX      PTSUNNY    6  -2  68 W12       30.56S WCI  -9
$$

KYZ035>037-039>044-047>052-055>060-089>105-161700-
NORTHEAST KENTUCKY

CITY           SKY/WX    TMP DP  RH WIND       PRES   REMARKS
LEXINGTON      LGT SNOW  11   6  81 W8        30.53R VSB 1   WCI  -1
COVINGTON      PTSUNNY    7   0  73 W9        30.51S WCI  -7
FRANKFORT      LGT SNOW   9   2  73 W8        30.54R VSB 1   WCI  -3
$$

KYZ054-064>069-076>088-106>120-161700-
SOUTHEAST KENTUCKY

CITY           SKY/WX    TMP DP  RH WIND       PRES   REMARKS
JACKSON        SNOW      18  14  84 NW6       30.44R WCI  10
LONDON         CLOUDY    18  13  80 N7        30.47S WCI   9
SOMERSET       NOT AVBL
MIDDLESBORO    FLURRIES  27  22  82 NE5       30.44R WCI  21
MONTICELLO     LGT SNOW  16  12  84 NW12      30.54S FOG     WCI   3
$$




USA.gov is the U.S. government's official web portal to all federal, state and local government web resources and services.